Flag for Spain Weather past 2 weeks in Madrid, Spain

Now
51 °F

Clear.


Feels Like: 51 °F
Forecast: 49 / 71 °F
Wind: 3 mph from North

Location: Madrid / Barajas

Current Time: Oct 26, 2014 at 5:34:56 AM

Latest Report: Oct 26, 2014 at 5:00 AM


Visibility: 19 mi

Pressure: 30.22 "Hg

Humidity: 80%

Dew point: 46 °F

Location of MadridLocation

Historic Weather in Madrid — Graph

°F

Madrid temperature yesterday

Maximum temperature yesterday: 81 °F (at 4:00 PM)
Minimum temperature yesterday: 52 °F (at 8:00 AM)
Average temperature yesterday: 66 °F

Past Weeks' High & Low Weather Summary

 TemperatureHumidityPressure
High84 °F (Oct 21, 5:00 PM)96% (Oct 12, 12:00 AM)30.35 "Hg (Oct 12, 12:00 AM)
Low45 °F (Oct 23, 9:00 AM)13% (Oct 22, 5:00 PM)29.67 "Hg (Oct 11, 9:00 PM)
Average62 °F68%30.05 "Hg
* Reported Oct 11 5:00 AM — Oct 26 4:00 AM, Madrid, Weather by CustomWeather, © 2014

Note: Actual official high and low records may vary slightly from our data, if they occured in-between our weather recording intervals... More about our weather records

Advertising

Madrid weather history for previous 24 hours

 ConditionsComfort  
Time TempWeatherWind HumidityBarometerVisibility
4:00 AM
Oct 26
52 °FClear.3 mph79%30.23 "Hg19 mi
3:00 AM52 °FClear.3 mph80%30.23 "Hg19 mi
2:00 AM54 °FPassing clouds.6 mph75%30.23 "Hg18 mi
2:00 AM57 °FPassing clouds.5 mph68%30.21 "Hg19 mi
1:00 AM57 °FPassing clouds.5 mph66%30.21 "Hg19 mi
12:00 AM58 °FPassing clouds.No wind62%30.20 "Hg19 mi
11:00 PM
Oct 25
61 °FClear.5 mph58%30.17 "Hg19 mi
10:00 PM63 °FPassing clouds.5 mph54%30.15 "Hg19 mi
9:00 PM66 °FClear.6 mph45%30.12 "Hg19 mi
8:00 PM69 °FPassing clouds.5 mph40%30.10 "Hg19 mi
7:00 PM76 °FPassing clouds.5 mph34%30.05 "Hg19 mi
6:00 PM80 °FPleasantly warm.3 mph26%30.03 "Hg16 mi
5:00 PM81 °FScattered clouds.2 mph26%30.03 "Hg19 mi
4:00 PM81 °FScattered clouds.2 mph26%30.04 "Hg19 mi
3:00 PM80 °FPassing clouds.2 mph29%30.06 "Hg19 mi
2:00 PM77 °FPassing clouds.2 mph35%30.09 "Hg16 mi
1:00 PM73 °FPassing clouds.No wind47%30.11 "Hg12 mi
12:00 PM67 °FScattered clouds.2 mph56%30.14 "Hg13 mi
11:00 AM62 °FPassing clouds.No wind65%30.16 "Hg18 mi
10:00 AM57 °FScattered clouds.No wind77%30.17 "Hg14 mi
9:00 AM53 °FPassing clouds.3 mph83%30.17 "Hg19 mi
8:00 AM52 °FPassing clouds.2 mph84%30.16 "Hg19 mi
7:00 AM53 °FPassing clouds.No wind81%30.16 "Hg19 mi
6:00 AM56 °FPassing clouds.8 mph75%30.13 "Hg19 mi
5:00 AM57 °FPassing clouds.5 mph74%30.13 "Hg16 mi
Weather by CustomWeather, © 2014

See weather overviewHow to use our weather pages